TITAN 3C TRANSTAGE DEB, 43455

Orbit data source: Space-Track

TITAN 3C TRANSTAGE DEB, 43455 is space debris in GEO originally from a launch on Sun, 09 Feb 1969 UTC launched from the Air Force Eastern Test Range (AFETR). Debris objects in space refer to the collection of defunct objects orbiting the Earth. Examples of debris include non-operational satellites, rocket bodies, and fragments generated from explosions, collisions, or faulty payload assembly.

Not visible in the next 10 days
Identifier
43455, 1969-013N
Orbit
GEO
Last TLE update
22 hours ago
Origin
Manufacturer
Martin Marietta
Mission
Spacecraft
Bus & Motor
Unknown
Mass
Unknown
Launch date (UTC)
1969-02-09 (56 years ago)
Launch vehicle
Unknown
Launch site
Air Force Eastern Test Range (AFETR)
Object type
Payload
Rocket body
Debris
Shape & HBR
Unknown
Radar Cross Section
RCS unknown

Expand to show TLE details & history

TLE from 22 hours ago
0 TITAN 3C TRANSTAGE DEB
1 43455U 69013N   25128.31921767 -.00000090  00000-0  00000-0 0  9994
2 43455   1.2592 186.4751 0083069 284.8886  75.2367  0.94020675 24542
Epoch: 2025-05-08T07:39Z
Definitive object data (Epoch: 2025-05-08T07:39:40.406Z)
Latitude
Longitude
-153.79312°
Altitude
37,546.042 km
Speed
3.016 km/s
True Right ascension
12h 30m 03s
True Declination
0° 00' 00"
Sunlit
Object was in daylight at TLE epoch
Visualization TLE readout
Latitude
-0.95317°
Longitude
157.4444°
Altitude
37,311.483 km
Speed
3.032 km/s
Apparent Right ascension
08h 50m 00s
Apparent Declination
-6° 28' 39"
Sunlit
Object is in daylight
Visualization observer readout
Local Sidereal Time
13:54:32
Azimuth
256.065° W
Elevation
6.332°
Doppler factor
1
Orbital elements
Apogee altitude
38,002.051 km
Perigee altitude
37,270.802 km
Semi-major axis
44,014.563 km
Eccentricity
0.0083069
Inclination
1.2592°
RAAN
186.4751°
Arg. of periapsis
284.8886°
True anomaly
76.15958°
Mean anomaly
75.2367°
Eccentric anomaly
75.6979°
Mean motion
0.23504 °/min
BSTAR
Unknown
Orbital period
1531.63 mins
Loading historical data...
43455 neighbors
Loading maneuver chart data...
Loading SW <> Apogee altitude chart data...

TITAN 3C TRANSTAGE DEB Visibility forecast

Observer location: undefined°, undefined°

TITAN 3C TRANSTAGE DEB is not visible in the next 10 days
Span
Click to sort rows by Start time (UTC) header in descending order
Start Az.
Max El. time (UTC)
Max El. Az.
Max El.
End time (UTC)
End Az.
|